FENGYUN 1C DEB, 31509

Orbit data source: Space-Track

FENGYUN 1C DEB, 31509 is space debris in SSO originally from a launch on Mon, 10 May 1999 UTC launched from the Taiyaun Space Center, China (TSC). Fengyun 1C debris stems from the Chinese weather satellite Fengyun-1C, which was intentionally destroyed by a Chinese anti-satellite missile in 2007. This event dramatically increased the amount of space debris, with thousands of trackable fragments posing hazards to satellites and human spaceflight. The Fengyun 1C debris cloud has become a focal point in discussions about space sustainability and the need for international regulations to prevent the creation of new debris.

Loading next visibility...
Identifier
31509, 1999-025BWY
Orbit
SSO
Country
Flag of CNCN / PRC
Related business
Manufacturer
Unknown
Mission
Spacecraft
Bus & Motor
Unknown
Mass
Unknown
Launch date (UTC)
1999-05-10 (27 years ago)
Launch vehicle
Unknown
Launch site
Taiyaun Space Center, China (TSC)
Object type
Payload
Rocket body
Debris
Shape & HBR
Unknown shape, 0.1 m
Radar Cross Section
Medium (>0.1 m² and <1 m²)

Expand to show TLE details & history
Last TLE update: 1 day ago

TLE from 1 day ago
0 FENGYUN 1C DEB
1 31509U 99025BWY 26207.28909961  .00001358  00000-0  87617-3 0  9993
2 31509  99.0342 327.0393 0192059 320.5210  38.2090 13.96070875971086
Epoch: 2026-07-26T06:56Z
TLE epoch observation values (Epoch: 2026-07-26T06:56:18.206Z)
Latitude
-0.00001°
Longitude
-81.02572°
Altitude
801.389 km
Speed
7.508 km/s
True Right ascension
21h 48m 09s
True Declination
0° 00' 00"
Sunlit
Object was in full shadow at epoch
Visualization orbit readout
Latitude
Unknown
Longitude
Unknown
Altitude
Unknown
Speed
Unknown
Apparent Right ascension
Unknown
Apparent Declination
Unknown
Sunlit
N/A
Visualization observer readout
Local Sidereal Time
20:06:21
Azimuth
Unknown
Elevation
Unknown
Doppler factor
Unknown
Orbital elements
Apogee altitude
1,044.51 km
Perigee altitude
764.765 km
Semi-major axis
7,282.775 km
Eccentricity
0.01921
Inclination
99.0342°
RAAN
327.0393°
Arg. of periapsis
320.521°
True anomaly
39.5963°
Mean anomaly
38.209°
Eccentric anomaly
38.90002°
Mean motion
3.49219 °/min
Orbital period
103.09 mins
BSTAR
0.00087617
Loading maneuver chart data...
Computing Atmospheric mass density...

Documentation

Showing up to 5 results
|